CHEFSAT

Last updated on Thu Jan 06 2022 00:03:20 GMT+0000 (Coordinated Universal Time)

1 43044U 17071H 22002.46118060 .15775585 12655-4 30586-3 0 9994 2 43044 51.6069 95.3663 0003479 15.4088 344.7047 16.47175635230587

Satellite not in orbit